MLP141 LICA-LIMC

Flight info

Callsign MLP141
Flight time 1h 24m
Altitude 36000
Route ARBUM DCT EVINO DCT PNZ DCT RIFFI DCT ELVIN DCT LUNAK DCT RAVAL DCT MEDAL DCT GILIO DCT UPDIN DCT SPEZI DCT IDONA DCT MEBUR
Aircraft A320/M-SDE3FGHIRWY/LB1

Departure

Time 2026-05-08 17:51
Airport Lamezia Terme Sant'Eufemia International Airport (LICA)

Arrival

Time 2026-05-08 19:15
Airport Milan Malpensa International Airport (LIMC)
Time Latitude Longitude Altitude Speed Heading
2026-05-08 17:32 38.90952 16.23971 32 ft 0 kts
2026-05-08 17:43 38.90945 16.23969 32 ft 4 kts
2026-05-08 17:43 38.90918 16.23964 32 ft 4 kts
2026-05-08 17:43 38.90895 16.23960 32 ft 4 kts 16°
2026-05-08 17:44 38.90877 16.23943 30 ft 4 kts 72°
2026-05-08 17:44 38.90874 16.23910 29 ft 4 kts 97°
2026-05-08 17:44 38.90876 16.23894 30 ft 0 kts 98°
2026-05-08 17:46 38.90868 16.23957 32 ft 18 kts 98°
2026-05-08 17:46 38.90848 16.24125 32 ft 18 kts 98°
2026-05-08 17:46 38.90831 16.24278 32 ft 16 kts 98°
2026-05-08 17:47 38.90815 16.24415 32 ft 15 kts 98°
2026-05-08 17:47 38.90799 16.24536 32 ft 13 kts 108°
2026-05-08 17:47 38.90739 16.24606 32 ft 11 kts 141°
2026-05-08 17:47 38.90714 16.24659 32 ft 10 kts 107°
2026-05-08 17:48 38.90701 16.24769 32 ft 12 kts 98°
2026-05-08 17:48 38.90680 16.24949 33 ft 28 kts 98°
2026-05-08 17:48 38.90649 16.25215 34 ft 31 kts 98°
2026-05-08 17:48 38.90616 16.25493 33 ft 32 kts 98°
2026-05-08 17:49 38.90583 16.25781 32 ft 32 kts 98°
2026-05-08 17:49 38.90552 16.26046 34 ft 30 kts 98°
2026-05-08 17:49 38.90481 16.26291 33 ft 30 kts 152°
2026-05-08 17:49 38.90308 16.26243 34 ft 13 kts 244°
2026-05-08 17:50 38.90316 16.26155 34 ft 0 kts 278°
2026-05-08 17:50 38.90317 16.26147 34 ft 6 kts 278°
2026-05-08 17:50 38.90335 16.25979 31 ft 55 kts 278°
2026-05-08 17:50 38.90426 16.25209 34 ft 116 kts 278°
2026-05-08 17:51 38.90559 16.23967 42 ft 163 kts 276°
2026-05-08 17:51 38.90760 16.22441 381 ft 182 kts 277°
2026-05-08 17:51 38.90953 16.20760 897 ft 196 kts 277°
2026-05-08 17:51 38.91237 16.18300 1417 ft 227 kts 278°
2026-05-08 17:52 38.91398 16.16902 1742 ft 242 kts 278°
2026-05-08 17:52 38.91649 16.14696 2452 ft 254 kts 278°
2026-05-08 17:52 38.93021 16.10597 4326 ft 257 kts 308°
2026-05-08 17:53 38.94178 16.08852 5334 ft 257 kts 308°
2026-05-08 17:53 38.95338 16.07110 6273 ft 258 kts 307°
2026-05-08 17:53 38.96508 16.05345 7134 ft 260 kts 306°
2026-05-08 17:53 38.97688 16.03562 7962 ft 264 kts 306°
2026-05-08 17:54 38.98873 16.01765 8783 ft 267 kts 306°
2026-05-08 17:54 39.00075 15.99939 9627 ft 271 kts 306°
2026-05-08 17:54 39.01305 15.98070 10289 ft 281 kts 307°
2026-05-08 17:54 39.02611 15.96128 10525 ft 305 kts 311°
2026-05-08 17:55 39.04307 15.94342 10951 ft 324 kts 323°
2026-05-08 17:55 39.06343 15.92993 11644 ft 332 kts 331°
2026-05-08 17:55 39.08444 15.91766 12413 ft 334 kts 330°
2026-05-08 17:55 39.10575 15.90510 13172 ft 337 kts 330°
2026-05-08 17:56 39.12701 15.89249 13904 ft 339 kts 330°
2026-05-08 17:56 39.14858 15.87966 14552 ft 341 kts 330°
2026-05-08 17:56 39.17021 15.86679 15227 ft 343 kts 329°
2026-05-08 17:56 39.19198 15.85382 15879 ft 345 kts 329°
2026-05-08 17:57 39.21328 15.83972 16525 ft 342 kts 320°
2026-05-08 17:57 39.23115 15.81982 17158 ft 340 kts 312°
2026-05-08 17:57 39.24834 15.79875 17819 ft 341 kts 311°
2026-05-08 17:57 39.26553 15.77754 18446 ft 343 kts 311°
2026-05-08 17:58 39.28277 15.75619 18980 ft 345 kts 311°
2026-05-08 17:58 39.30027 15.73449 19339 ft 354 kts 311°
2026-05-08 17:58 39.31833 15.71203 19452 ft 368 kts 311°
2026-05-08 17:58 39.33683 15.68902 19571 ft 381 kts 312°
2026-05-08 17:59 39.35614 15.66506 19688 ft 393 kts 312°
2026-05-08 17:59 39.37617 15.64022 19803 ft 404 kts 312°
2026-05-08 17:59 39.39669 15.61479 19919 ft 413 kts 312°
2026-05-08 17:59 39.41767 15.58883 20088 ft 420 kts 312°
2026-05-08 18:00 39.43892 15.56256 20387 ft 424 kts 312°
2026-05-08 18:00 39.48172 15.50933 21031 ft 429 kts 312°
2026-05-08 18:00 39.50325 15.48244 21365 ft 431 kts 312°
2026-05-08 18:01 39.52487 15.45540 21661 ft 433 kts 312°
2026-05-08 18:01 39.54666 15.42816 21956 ft 435 kts 312°
2026-05-08 18:01 39.56852 15.40082 22257 ft 438 kts 312°
2026-05-08 18:01 39.59030 15.37357 22548 ft 440 kts 312°
2026-05-08 18:02 39.61215 15.34618 22834 ft 442 kts 312°
2026-05-08 18:02 39.63433 15.31839 23121 ft 444 kts 312°
2026-05-08 18:02 39.65654 15.29048 23398 ft 446 kts 312°
2026-05-08 18:02 39.67883 15.26243 23659 ft 448 kts 312°
2026-05-08 18:03 39.70122 15.23421 23893 ft 449 kts 312°
2026-05-08 18:03 39.72366 15.20588 24135 ft 450 kts 312°
2026-05-08 18:03 39.74617 15.17754 24367 ft 452 kts 312°
2026-05-08 18:03 39.76882 15.14907 24603 ft 453 kts 312°
2026-05-08 18:04 39.79145 15.12061 24841 ft 454 kts 312°
2026-05-08 18:04 39.81413 15.09207 25064 ft 455 kts 312°
2026-05-08 18:04 39.83691 15.06335 25290 ft 456 kts 312°
2026-05-08 18:04 39.85974 15.03447 25523 ft 457 kts 312°
2026-05-08 18:05 39.88250 15.00562 25781 ft 457 kts 312°
2026-05-08 18:05 39.90525 14.97674 26129 ft 456 kts 312°
2026-05-08 18:05 39.92785 14.94794 26490 ft 454 kts 311°
2026-05-08 18:05 39.95042 14.91917 26860 ft 453 kts 311°
2026-05-08 18:06 39.97298 14.89045 27193 ft 452 kts 311°
2026-05-08 18:06 39.99544 14.86185 27548 ft 451 kts 311°
2026-05-08 18:06 40.01754 14.83368 27907 ft 449 kts 311°
2026-05-08 18:06 40.04013 14.80484 28281 ft 448 kts 311°
2026-05-08 18:07 40.06203 14.77685 28648 ft 446 kts 311°
2026-05-08 18:07 40.08414 14.74860 29025 ft 445 kts 311°
2026-05-08 18:07 40.10630 14.72027 29400 ft 444 kts 311°
2026-05-08 18:07 40.12829 14.69210 29775 ft 442 kts 311°
2026-05-08 18:08 40.15023 14.66399 30141 ft 441 kts 311°
2026-05-08 18:08 40.17209 14.63593 30456 ft 440 kts 311°
2026-05-08 18:08 40.19386 14.60794 30776 ft 438 kts 311°
2026-05-08 18:08 40.21558 14.58000 31129 ft 437 kts 311°
2026-05-08 18:09 40.23721 14.55221 31461 ft 435 kts 311°
2026-05-08 18:09 40.25878 14.52448 31812 ft 433 kts 310°
2026-05-08 18:09 40.28024 14.49684 32140 ft 431 kts 310°
2026-05-08 18:09 40.30153 14.46933 32482 ft 430 kts 310°
2026-05-08 18:10 40.32275 14.44185 32811 ft 428 kts 310°
2026-05-08 18:10 40.34395 14.41436 33146 ft 427 kts 310°
2026-05-08 18:10 40.36503 14.38709 33474 ft 425 kts 310°
2026-05-08 18:10 40.38604 14.35991 33803 ft 424 kts 309°
2026-05-08 18:11 40.40700 14.33276 34131 ft 422 kts 309°
2026-05-08 18:11 40.42782 14.30571 34394 ft 421 kts 309°
2026-05-08 18:11 40.44867 14.27862 34659 ft 420 kts 309°
2026-05-08 18:11 40.46939 14.25166 34963 ft 419 kts 309°
2026-05-08 18:12 40.48976 14.22510 35245 ft 417 kts 309°
2026-05-08 18:12 40.51035 14.19826 35486 ft 417 kts 309°
2026-05-08 18:12 40.53102 14.17128 35700 ft 417 kts 309°
2026-05-08 18:12 40.55156 14.14445 35925 ft 417 kts 309°
2026-05-08 18:13 40.59268 14.09070 36009 ft 416 kts 309°
2026-05-08 18:13 40.63369 14.03706 36020 ft 415 kts 309°
2026-05-08 18:14 40.67452 13.98347 36004 ft 413 kts 309°
2026-05-08 18:14 40.71527 13.92989 36032 ft 413 kts 309°
2026-05-08 18:15 40.75599 13.87628 36014 ft 414 kts 309°
2026-05-08 18:15 40.79676 13.82252 36015 ft 415 kts 309°
2026-05-08 18:16 40.83764 13.76853 36018 ft 416 kts 309°
2026-05-08 18:16 40.87828 13.71476 36015 ft 416 kts 309°
2026-05-08 18:17 40.91907 13.66064 36012 ft 416 kts 309°
2026-05-08 18:17 40.95985 13.60638 36011 ft 416 kts 309°
2026-05-08 18:18 41.00068 13.55198 36025 ft 417 kts 309°
2026-05-08 18:18 41.04157 13.49754 36012 ft 418 kts 309°
2026-05-08 18:19 41.08257 13.44282 36012 ft 419 kts 309°
2026-05-08 18:19 41.12361 13.38781 36017 ft 420 kts 309°
2026-05-08 18:20 41.17064 13.32466 36020 ft 421 kts 309°
2026-05-08 18:20 41.21885 13.25985 36052 ft 421 kts 309°
2026-05-08 18:21 41.26003 13.20444 36033 ft 421 kts 309°
2026-05-08 18:21 41.30114 13.14893 36045 ft 422 kts 309°
2026-05-08 18:22 41.34236 13.09320 36040 ft 423 kts 309°
2026-05-08 18:22 41.38371 13.03726 36024 ft 424 kts 309°
2026-05-08 18:23 41.42496 12.98123 36024 ft 424 kts 309°
2026-05-08 18:23 41.46596 12.92535 36024 ft 424 kts 309°
2026-05-08 18:24 41.50721 12.86903 36006 ft 424 kts 309°
2026-05-08 18:24 41.54848 12.81265 36002 ft 425 kts 309°
2026-05-08 18:25 41.58978 12.75615 36011 ft 425 kts 309°
2026-05-08 18:25 41.63114 12.69951 36010 ft 426 kts 309°
2026-05-08 18:26 41.67258 12.64272 36032 ft 426 kts 309°
2026-05-08 18:26 41.71366 12.58611 36049 ft 426 kts 309°
2026-05-08 18:27 41.74826 12.53841 36041 ft 427 kts 309°
2026-05-08 18:27 41.79640 12.47210 36029 ft 427 kts 309°
2026-05-08 18:28 41.83785 12.41473 36026 ft 428 kts 309°
2026-05-08 18:28 41.87917 12.35728 36027 ft 428 kts 309°
2026-05-08 18:29 41.92054 12.29966 36024 ft 429 kts 309°
2026-05-08 18:29 41.96205 12.24188 36046 ft 429 kts 309°
2026-05-08 18:30 42.00330 12.18441 36205 ft 430 kts 309°
2026-05-08 18:30 42.04481 12.12640 36197 ft 430 kts 309°
2026-05-08 18:31 42.08634 12.06827 36164 ft 431 kts 309°
2026-05-08 18:31 42.12788 12.01003 36134 ft 431 kts 309°
2026-05-08 18:32 42.16945 11.95158 36094 ft 432 kts 309°
2026-05-08 18:32 42.21096 11.89303 36025 ft 432 kts 309°
2026-05-08 18:33 42.25247 11.83435 36026 ft 432 kts 309°
2026-05-08 18:33 42.29396 11.77559 36027 ft 432 kts 309°
2026-05-08 18:34 42.33519 11.71704 36031 ft 432 kts 309°
2026-05-08 18:34 42.37667 11.65814 36048 ft 432 kts 308°
2026-05-08 18:35 42.41815 11.59908 36043 ft 433 kts 308°
2026-05-08 18:35 42.45957 11.54000 36057 ft 433 kts 309°
2026-05-08 18:36 42.50098 11.48083 36049 ft 433 kts 309°
2026-05-08 18:36 42.54237 11.42148 36044 ft 433 kts 309°
2026-05-08 18:37 42.58350 11.36240 36041 ft 433 kts 309°
2026-05-08 18:37 42.62476 11.30300 36043 ft 433 kts 309°
2026-05-08 18:38 42.65942 11.25311 36031 ft 433 kts 309°
2026-05-08 18:38 42.70051 11.19380 36023 ft 433 kts 309°
2026-05-08 18:39 42.74181 11.13402 36013 ft 433 kts 309°
2026-05-08 18:39 42.78302 11.07421 36007 ft 433 kts 309°
2026-05-08 18:40 42.82375 11.01504 36005 ft 433 kts 309°
2026-05-08 18:40 42.86497 10.95497 36011 ft 433 kts 309°
2026-05-08 18:41 42.90616 10.89488 36031 ft 433 kts 309°
2026-05-08 18:41 42.94739 10.83470 36049 ft 433 kts 309°
2026-05-08 18:42 42.98845 10.77455 36042 ft 433 kts 308°
2026-05-08 18:42 43.02946 10.71422 36035 ft 432 kts 308°
2026-05-08 18:43 43.07007 10.65443 36022 ft 432 kts 308°
2026-05-08 18:43 43.11090 10.59425 36023 ft 432 kts 308°
2026-05-08 18:44 43.15146 10.53426 36027 ft 432 kts 308°
2026-05-08 18:44 43.19177 10.47458 36015 ft 433 kts 308°
2026-05-08 18:45 43.23277 10.41368 36020 ft 434 kts 308°
2026-05-08 18:45 43.27368 10.35285 36021 ft 434 kts 308°
2026-05-08 18:46 43.31371 10.29310 36023 ft 435 kts 308°
2026-05-08 18:46 43.35451 10.23210 36031 ft 435 kts 308°
2026-05-08 18:47 43.39540 10.17098 35580 ft 433 kts 308°
2026-05-08 18:47 43.41574 10.14053 34822 ft 433 kts 308°
2026-05-08 18:47 43.43608 10.11003 34090 ft 433 kts 308°
2026-05-08 18:48 43.45644 10.07944 33218 ft 433 kts 308°
2026-05-08 18:48 43.47657 10.04919 32291 ft 435 kts 308°
2026-05-08 18:48 43.49735 10.01796 31302 ft 438 kts 309°
2026-05-08 18:48 43.51779 9.98715 30323 ft 442 kts 309°
2026-05-08 18:49 43.53946 9.95696 29185 ft 449 kts 318°
2026-05-08 18:49 43.56523 9.93474 28069 ft 457 kts 330°
2026-05-08 18:49 43.59420 9.91605 26808 ft 463 kts 332°
2026-05-08 18:49 43.62332 9.89775 25562 ft 458 kts 333°
2026-05-08 18:50 43.65211 9.87995 24221 ft 450 kts 333°
2026-05-08 18:50 43.68050 9.86246 22774 ft 444 kts 334°
2026-05-08 18:50 43.70850 9.84517 21375 ft 437 kts 334°
2026-05-08 18:50 43.73599 9.82803 20091 ft 429 kts 334°
2026-05-08 18:51 43.76289 9.81111 18896 ft 421 kts 334°
2026-05-08 18:51 43.78885 9.79470 17650 ft 415 kts 334°
2026-05-08 18:51 43.81493 9.77822 16355 ft 408 kts 334°
2026-05-08 18:51 43.84054 9.76185 15119 ft 402 kts 334°
2026-05-08 18:52 43.86550 9.74489 13957 ft 396 kts 333°
2026-05-08 18:52 43.89011 9.72732 13004 ft 397 kts 332°
2026-05-08 18:52 43.91441 9.70962 12362 ft 392 kts 332°
2026-05-08 18:52 43.93665 9.69343 11743 ft 389 kts 332°
2026-05-08 18:53 43.96052 9.67613 11078 ft 386 kts 332°
2026-05-08 18:53 43.98432 9.65897 10212 ft 387 kts 332°
2026-05-08 18:53 44.00842 9.64170 9217 ft 391 kts 332°
2026-05-08 18:53 44.03251 9.62450 8409 ft 389 kts 332°
2026-05-08 18:54 44.05651 9.60737 7649 ft 385 kts 332°
2026-05-08 18:54 44.08254 9.58876 7162 ft 384 kts 332°
2026-05-08 18:54 44.11392 9.56632 6921 ft 385 kts 333°
2026-05-08 18:54 44.14111 9.54685 6991 ft 385 kts 332°
2026-05-08 18:55 44.19832 9.50580 7048 ft 386 kts 332°
2026-05-08 18:55 44.23121 9.48210 7052 ft 385 kts 332°
2026-05-08 18:55 44.25494 9.46501 7050 ft 385 kts 332°
2026-05-08 18:56 44.27886 9.44780 7048 ft 385 kts 332°
2026-05-08 18:56 44.30275 9.43061 7050 ft 386 kts 332°
2026-05-08 18:56 44.32664 9.41338 7058 ft 386 kts 332°
2026-05-08 18:56 44.35015 9.39641 7057 ft 386 kts 332°
2026-05-08 18:57 44.37397 9.37915 7049 ft 386 kts 332°
2026-05-08 18:57 44.39008 9.36747 7056 ft 385 kts 332°
2026-05-08 18:57 44.42232 9.34406 7056 ft 386 kts 332°
2026-05-08 18:57 44.44549 9.32720 7052 ft 386 kts 332°
2026-05-08 18:58 44.46240 9.31514 6986 ft 384 kts 333°
2026-05-08 18:58 44.48629 9.29802 7055 ft 386 kts 332°
2026-05-08 18:59 44.51563 9.27661 7227 ft 386 kts 332°
2026-05-08 18:59 44.54800 9.25280 7559 ft 388 kts 332°
2026-05-08 18:59 44.58135 9.22831 7911 ft 390 kts 332°
2026-05-08 18:59 44.62036 9.19974 8060 ft 391 kts 332°
2026-05-08 19:00 44.64382 9.18261 8088 ft 388 kts 332°
2026-05-08 19:00 44.69573 9.14468 8068 ft 389 kts 332°
2026-05-08 19:00 44.72574 9.12268 8064 ft 389 kts 332°
2026-05-08 19:00 44.74864 9.10585 8070 ft 391 kts 332°
2026-05-08 19:01 44.79026 9.07536 7503 ft 384 kts 333°
2026-05-08 19:01 44.82570 9.04951 6309 ft 380 kts 332°
2026-05-08 19:01 44.84901 9.03227 5525 ft 376 kts 333°
2026-05-08 19:01 44.87192 9.01525 4776 ft 370 kts 333°
2026-05-08 19:02 44.89462 8.99839 4197 ft 368 kts 333°
2026-05-08 19:02 44.91727 8.98160 4013 ft 368 kts 333°
2026-05-08 19:02 44.95686 8.95231 4023 ft 368 kts 333°
2026-05-08 19:02 44.98350 8.93265 3466 ft 362 kts 333°
2026-05-08 19:03 45.00461 8.91704 3892 ft 324 kts 333°
2026-05-08 19:03 45.02352 8.90297 4003 ft 299 kts 333°
2026-05-08 19:03 45.04143 8.89039 4026 ft 277 kts 341°
2026-05-08 19:03 45.05946 8.88434 4038 ft 257 kts 350°
2026-05-08 19:04 45.07640 8.87970 4036 ft 240 kts 350°
2026-05-08 19:04 45.09229 8.87539 4036 ft 227 kts 350°
2026-05-08 19:04 45.12068 8.86777 4036 ft 225 kts 350°
2026-05-08 19:04 45.14153 8.86211 4038 ft 225 kts 350°
2026-05-08 19:05 45.15692 8.85788 4039 ft 225 kts 351°
2026-05-08 19:05 45.17233 8.85367 4038 ft 225 kts 351°
2026-05-08 19:05 45.18776 8.84948 4037 ft 226 kts 351°
2026-05-08 19:05 45.20309 8.84534 4033 ft 225 kts 351°
2026-05-08 19:06 45.21849 8.84117 4033 ft 225 kts 351°
2026-05-08 19:06 45.23390 8.83698 4032 ft 225 kts 350°
2026-05-08 19:06 45.24931 8.83278 3991 ft 225 kts 350°
2026-05-08 19:06 45.26451 8.82863 3989 ft 225 kts 350°
2026-05-08 19:07 45.27470 8.82584 3990 ft 225 kts 350°
2026-05-08 19:07 45.29004 8.82165 3988 ft 225 kts 350°
2026-05-08 19:07 45.30537 8.81747 3987 ft 225 kts 350°
2026-05-08 19:07 45.32081 8.81326 3989 ft 224 kts 350°
2026-05-08 19:08 45.33572 8.80920 3921 ft 213 kts 350°
2026-05-08 19:08 45.34980 8.80630 3805 ft 197 kts
2026-05-08 19:08 45.36305 8.80564 3684 ft 185 kts 355°
2026-05-08 19:08 45.37541 8.80315 3551 ft 175 kts 352°
2026-05-08 19:09 45.38677 8.80028 3442 ft 158 kts 351°
2026-05-08 19:09 45.39712 8.79752 3295 ft 147 kts 351°
2026-05-08 19:09 45.40702 8.79484 3077 ft 143 kts 351°
2026-05-08 19:09 45.41678 8.79219 2999 ft 143 kts 351°
2026-05-08 19:10 45.42655 8.78952 2992 ft 143 kts 350°
2026-05-08 19:10 45.43634 8.78684 3012 ft 143 kts 350°
2026-05-08 19:10 45.44618 8.78415 3009 ft 144 kts 349°
2026-05-08 19:10 45.45589 8.78148 3009 ft 144 kts 349°
2026-05-08 19:11 45.46575 8.77878 3042 ft 144 kts 349°
2026-05-08 19:11 45.47559 8.77608 3037 ft 144 kts 349°
2026-05-08 19:11 45.48546 8.77337 3025 ft 145 kts 349°
2026-05-08 19:11 45.49538 8.77064 2849 ft 144 kts 349°
2026-05-08 19:12 45.50524 8.76792 2634 ft 144 kts 349°
2026-05-08 19:12 45.51501 8.76516 2436 ft 143 kts 348°
2026-05-08 19:12 45.52476 8.76236 2293 ft 143 kts 348°
2026-05-08 19:12 45.53447 8.75967 2135 ft 142 kts 349°
2026-05-08 19:13 45.54421 8.75732 2009 ft 142 kts 349°
2026-05-08 19:13 45.55388 8.75482 1888 ft 142 kts 348°
2026-05-08 19:13 45.56348 8.75188 1728 ft 142 kts 347°
2026-05-08 19:13 45.57316 8.74910 1511 ft 140 kts 351°
2026-05-08 19:14 45.58277 8.74694 1335 ft 139 kts 349°
2026-05-08 19:14 45.59221 8.74396 1148 ft 139 kts 349°
2026-05-08 19:14 45.60164 8.74142 979 ft 138 kts 348°
2026-05-08 19:14 45.61102 8.73876 837 ft 137 kts 350°
2026-05-08 19:15 45.62034 8.73615 718 ft 130 kts 349°
2026-05-08 19:15 45.62765 8.73425 730 ft 82 kts 352°
2026-05-08 19:15 45.63136 8.73245 735 ft 32 kts 326°
2026-05-08 19:15 45.63280 8.73031 741 ft 29 kts 302°
2026-05-08 19:16 45.63386 8.72799 744 ft 27 kts 300°
2026-05-08 19:16 45.63397 8.72546 745 ft 26 kts 258°
2026-05-08 19:16 45.63374 8.72379 744 ft 0 kts 261°
2026-05-08 19:17 45.63373 8.72370 744 ft 6 kts 261°
2026-05-08 19:17 45.63340 8.72121 747 ft 33 kts 258°
2026-05-08 19:17 45.63286 8.71823 747 ft 24 kts 235°
2026-05-08 19:18 45.63161 8.71692 744 ft 25 kts 173°
2026-05-08 19:18 45.63059 8.71763 743 ft 12 kts 98°
2026-05-08 19:18 45.63024 8.71795 743 ft 7 kts 192°
2026-05-08 19:18 45.62973 8.71769 741 ft 9 kts 205°
2026-05-08 19:19 45.62914 8.71758 741 ft 9 kts 173°
2026-05-08 19:19 45.62902 8.71816 740 ft 7 kts 75°
2026-05-08 19:19 45.62909 8.71862 740 ft 0 kts 78°